{"data":{"norad_id":66773,"intl_designator":"2025-276DM","name":"TRANSPORTER-15 OBJECT DM","alt_names":[],"object_type":"PAYLOAD","status":"ACTIVE","operator":null,"country":"TBD","launch_date":"2025-11-28","launch_site_code":"AFWTR","launch_vehicle":null,"mission":null,"orbit_class":"UNKNOWN","rcs_meters":null,"size_class":null,"mass_kg":null,"dimensions":null,"purposes":[],"wikipedia_slug":null,"has_3d_model":false,"image_url":null,"decayed_at":null,"tle_current":{"epoch":"2026-09-19T23:00:11.852064Z","epoch_age_seconds":164437,"freshness":"FRESH","line1":"1 66773U 25276DM  26262.95847051  .00002873  00000+0  13185-3 0  9998","line2":"2 66773  97.4136 335.3844 0000736 167.0572 193.0682 15.21214395 44847","mean_motion":15.21214395,"eccentricity":7.36e-5,"inclination_deg":97.4136,"raan_deg":335.3844,"arg_perigee_deg":167.0572,"mean_anomaly_deg":193.0682,"bstar":0.00013185,"rev_number":4484,"period_min":94.661213089559,"perigee_km":501.67005335018,"apogee_km":502.68283548919,"semimajor_km":6880.3134444197,"source":"CELESTRAK","updated_at":"2026-09-21T09:00:16.186733Z"}}}